Regional Weather Roundup
Issued by NWS Cleveland, OH

Home | Current Version | Previous Version | Graphics & Text | Print | Product List | Glossary On
Versions: 1 2 3 4 5 6 7 8 9 10 11 12 13 14 15 16 17 18 19 20 21 22 23 24 25 26 27 28 29 30 31 32 33 34 35 36 37 38 39 40 41 42 43 44 45 46 47 48 49 50
000
ASUS41 KCLE 021202
RWRCLE
OHIO REGIONAL WEATHER ROUNDUP
NATIONAL WEATHER SERVICE CLEVELAND, OH
800 AM EDT MON MAY 02 2016

NOTE: "FAIR" INDICATES FEW OR NO CLOUDS BELOW 12,000 FEET WITH NO
SIGNIFICANT WEATHER AND/OR OBSTRUCTIONS TO VISIBILITY.

OHZ001>008-015>018-024>027-034-035-043-044-021300-
   NORTHWEST OHIO

CITY           SKY/WX    TMP DP  RH WIND       PRES   REMARKS
DEFIANCE       CLOUDY    47  45  93 N8        29.99R FOG
FINDLAY        CLOUDY    49  44  83 NE8       29.97R
TOLEDO EXPRESS LGT RAIN  47  46  97 NE7       29.99R FOG
TOLEDO EXEC    CLOUDY    47  44  90 NE5       30.00R FOG
LIMA           CLOUDY    49  48  97 N10       29.96R
$$

OHZ009>014-019>023-028>033-038-089-021300-
   NORTHEAST OHIO

CITY           SKY/WX    TMP DP  RH WIND       PRES   REMARKS
CLE-HOPKINS    CLOUDY    47  45  93 N9        29.96R
CLE-LAKEFRONT  CLOUDY    47  44  90 N12       29.93R
CUY CO. ARPT   NOT AVBL
LORAIN-ELYRIA  CLOUDY    45  43  93 N7        29.96R
ASHTABULA      CLOUDY    44  44 100 CALM      29.92R
AKRON-CANTON   CLOUDY    50  48  93 S5        29.90R
WOOSTER        FOG       48  48 100 SW6       29.92R VSB 1/4
MANSFIELD      FOG       48  46  93 NW13      29.93R VSB 1/16
YOUNGSTOWN     FOG       46  46 100 CALM      29.90R VSB 1/2
$$

OHZ042-051>053-060>062-070>072-077>081-021300-
  SOUTHWEST OHIO

CITY           SKY/WX    TMP DP  RH WIND       PRES   REMARKS
CINC-COVINGTON CLOUDY    59  57  93 W6        29.96R
CINC-LUNKEN    CLOUDY    60  59  96 W10       29.96R
HAMILTON       CLOUDY    60  58  92 W5        29.96R
DAYTON         CLOUDY    53  52  96 NW5       29.96R FOG
WRIGHT-PAT AFB NOT AVBL
DAYTON GENERAL CLOUDY    56  54  93 NW9       29.95R FOG
WILMINGTON     CLOUDY    59  57  93 SW8       29.93R
$$

OHZ036-037-039>041-045>050-054>059-063>069-073>076-082>088-021300-
  CENTRAL AND SOUTHEAST OHIO

CITY           SKY/WX    TMP DP  RH WIND       PRES   REMARKS
COLUMBUS       CLOUDY    54  54 100 CALM      29.91R
OSU AIRPORT    CLOUDY    55  53  93 SW3       29.92R
BOLTON FIELD   NOT AVBL
RICKENBACK AFB NOT AVBL
NEWARK         PTSUNNY   58  55  90 W3        29.91R
MARION         CLOUDY    50  48  93 N12       29.95R
LANCASTER      CLOUDY    60  58  92 SW5       29.92S
ZANESVILLE     CLOUDY    61  58  90 S5        29.92R FOG
NEW PHILLY     PTSUNNY   56  54  93 NW3       29.91R
$$




USA.gov is the U.S. government's official web portal to all federal, state and local government web resources and services.